GLO9565 SBGL-SBCF

Flight info

Callsign GLO9565
Flight time 0h 41m
Altitude 29000
Route DAKDA UZ4 TOKUR
Aircraft B737/M-SDFGIKLORWXY/LB1

Departure

Time 2026-04-29 23:01
Airport Rio Galeão – Tom Jobim International Airport (SBGL)

Arrival

Time 2026-04-29 23:43
Airport Tancredo Neves International Airport (SBCF)
Time Latitude Longitude Altitude Speed Heading
2026-04-29 22:36 -22.81332 -43.24841 23 ft 0 kts 101°
2026-04-29 22:51 -22.81329 -43.24857 24 ft 4 kts 105°
2026-04-29 22:52 -22.81319 -43.24882 23 ft 4 kts 140°
2026-04-29 22:52 -22.81304 -43.24889 25 ft 2 kts 194°
2026-04-29 22:52 -22.81327 -43.24896 23 ft 4 kts 193°
2026-04-29 22:52 -22.81336 -43.24898 22 ft 0 kts 187°
2026-04-29 22:54 -22.81342 -43.24898 21 ft 1 kts 187°
2026-04-29 22:55 -22.81356 -43.24900 21 ft 3 kts 186°
2026-04-29 22:55 -22.81380 -43.24902 21 ft 4 kts 185°
2026-04-29 22:55 -22.81409 -43.24905 23 ft 4 kts 184°
2026-04-29 22:55 -22.81439 -43.24907 21 ft 4 kts 184°
2026-04-29 22:56 -22.81466 -43.24919 21 ft 4 kts 219°
2026-04-29 22:56 -22.81482 -43.24953 21 ft 6 kts 250°
2026-04-29 22:56 -22.81484 -43.25008 20 ft 8 kts 269°
2026-04-29 22:56 -22.81514 -43.25063 20 ft 11 kts 219°
2026-04-29 22:57 -22.81593 -43.25124 22 ft 15 kts 216°
2026-04-29 22:57 -22.81676 -43.25187 21 ft 14 kts 214°
2026-04-29 22:57 -22.81731 -43.25229 22 ft 9 kts 214°
2026-04-29 22:57 -22.81768 -43.25278 21 ft 9 kts 264°
2026-04-29 22:58 -22.81734 -43.25352 22 ft 14 kts 306°
2026-04-29 22:58 -22.81670 -43.25451 21 ft 19 kts 306°
2026-04-29 22:58 -22.81582 -43.25583 19 ft 24 kts 306°
2026-04-29 22:58 -22.81484 -43.25732 21 ft 24 kts 305°
2026-04-29 22:59 -22.81392 -43.25874 23 ft 23 kts 305°
2026-04-29 22:59 -22.81301 -43.26011 26 ft 22 kts 306°
2026-04-29 22:59 -22.81212 -43.26143 27 ft 21 kts 306°
2026-04-29 22:59 -22.81133 -43.26262 28 ft 12 kts 306°
2026-04-29 23:00 -22.81136 -43.26342 29 ft 12 kts 224°
2026-04-29 23:00 -22.81212 -43.26338 30 ft 12 kts 159°
2026-04-29 23:00 -22.81302 -43.26264 29 ft 30 kts 129°
2026-04-29 23:00 -22.81574 -43.25867 26 ft 100 kts 126°
2026-04-29 23:01 -22.82099 -43.25081 25 ft 155 kts 126°
2026-04-29 23:01 -22.82778 -43.24031 317 ft 176 kts 128°
2026-04-29 23:01 -22.83533 -43.22870 675 ft 200 kts 127°
2026-04-29 23:01 -22.83908 -43.21984 1166 ft 196 kts 101°
2026-04-29 23:02 -22.83412 -43.19962 1601 ft 232 kts 62°
2026-04-29 23:02 -22.82612 -43.18325 1915 ft 258 kts 63°
2026-04-29 23:02 -22.81781 -43.16572 2728 ft 261 kts 63°
2026-04-29 23:02 -22.80950 -43.14826 3643 ft 262 kts 62°
2026-04-29 23:03 -22.80102 -43.13051 4414 ft 267 kts 62°
2026-04-29 23:03 -22.79534 -43.11863 4983 ft 269 kts 62°
2026-04-29 23:03 -22.78662 -43.10047 5787 ft 273 kts 62°
2026-04-29 23:03 -22.77775 -43.08203 6555 ft 280 kts 62°
2026-04-29 23:04 -22.76867 -43.06316 7376 ft 283 kts 62°
2026-04-29 23:04 -22.75951 -43.04414 8256 ft 286 kts 62°
2026-04-29 23:04 -22.75012 -43.02494 9149 ft 290 kts 58°
2026-04-29 23:04 -22.73602 -43.00935 10039 ft 295 kts 31°
2026-04-29 23:05 -22.71639 -43.00218 10636 ft 310 kts
2026-04-29 23:05 -22.69450 -43.00569 10997 ft 329 kts 339°
2026-04-29 23:05 -22.67228 -43.01191 11747 ft 335 kts 359°
2026-04-29 23:05 -22.64935 -43.00796 12719 ft 335 kts 13°
2026-04-29 23:06 -22.62717 -43.00114 13625 ft 337 kts 14°
2026-04-29 23:06 -22.60450 -42.99413 14381 ft 341 kts 13°
2026-04-29 23:06 -22.58141 -42.98739 15079 ft 346 kts 12°
2026-04-29 23:06 -22.55787 -42.98094 15815 ft 350 kts 11°
2026-04-29 23:07 -22.53403 -42.97470 16567 ft 354 kts 10°
2026-04-29 23:07 -22.50991 -42.96858 17298 ft 358 kts
2026-04-29 23:07 -22.48557 -42.96249 17853 ft 360 kts
2026-04-29 23:07 -22.46097 -42.95638 18091 ft 363 kts
2026-04-29 23:08 -22.43621 -42.95031 18060 ft 366 kts
2026-04-29 23:08 -22.41149 -42.94420 18084 ft 364 kts
2026-04-29 23:08 -22.38688 -42.93807 18083 ft 362 kts
2026-04-29 23:08 -22.36210 -42.93194 18302 ft 368 kts
2026-04-29 23:09 -22.33698 -42.92574 18971 ft 370 kts
2026-04-29 23:09 -22.31195 -42.92360 19633 ft 364 kts 351°
2026-04-29 23:09 -22.28690 -42.92750 20316 ft 364 kts 348°
2026-04-29 23:09 -22.26177 -42.93207 20931 ft 368 kts 347°
2026-04-29 23:10 -22.23642 -42.93666 21521 ft 371 kts 348°
2026-04-29 23:10 -22.21079 -42.94109 22088 ft 374 kts 348°
2026-04-29 23:10 -22.18493 -42.94540 22662 ft 378 kts 348°
2026-04-29 23:10 -22.15879 -42.94970 23264 ft 381 kts 347°
2026-04-29 23:11 -22.13245 -42.95404 23840 ft 383 kts 347°
2026-04-29 23:11 -22.10651 -42.95828 24842 ft 368 kts 347°
2026-04-29 23:11 -22.08168 -42.96230 25937 ft 355 kts 347°
2026-04-29 23:11 -22.05734 -42.96628 26726 ft 353 kts 347°
2026-04-29 23:12 -22.03301 -42.97031 27329 ft 355 kts 347°
2026-04-29 23:12 -22.00879 -42.97434 27903 ft 358 kts 347°
2026-04-29 23:12 -21.98383 -42.97848 28544 ft 358 kts 347°
2026-04-29 23:12 -21.95913 -42.98256 29032 ft 360 kts 347°
2026-04-29 23:13 -21.90910 -42.99084 29094 ft 378 kts 347°
2026-04-29 23:13 -21.88258 -42.99525 29094 ft 391 kts 347°
2026-04-29 23:13 -21.85524 -42.99977 29085 ft 403 kts 347°
2026-04-29 23:14 -21.82724 -43.00438 29088 ft 414 kts 347°
2026-04-29 23:14 -21.79828 -43.00913 29088 ft 424 kts 347°
2026-04-29 23:14 -21.73905 -43.01882 29065 ft 434 kts 348°
2026-04-29 23:15 -21.67967 -43.02849 29062 ft 430 kts 348°
2026-04-29 23:15 -21.62049 -43.03817 29065 ft 429 kts 348°
2026-04-29 23:16 -21.56140 -43.04785 29072 ft 429 kts 348°
2026-04-29 23:16 -21.50235 -43.05752 29086 ft 430 kts 348°
2026-04-29 23:17 -21.44350 -43.06714 29076 ft 431 kts 348°
2026-04-29 23:17 -21.38414 -43.07684 29078 ft 431 kts 348°
2026-04-29 23:18 -21.32475 -43.08653 29080 ft 432 kts 348°
2026-04-29 23:18 -21.26535 -43.09622 29073 ft 432 kts 348°
2026-04-29 23:19 -21.20587 -43.10591 29079 ft 432 kts 348°
2026-04-29 23:19 -21.14641 -43.11560 29084 ft 433 kts 348°
2026-04-29 23:20 -21.08672 -43.12532 29077 ft 433 kts 348°
2026-04-29 23:20 -21.02705 -43.13502 29086 ft 433 kts 348°
2026-04-29 23:21 -20.96777 -43.14466 29085 ft 433 kts 348°
2026-04-29 23:21 -20.90817 -43.15434 29090 ft 433 kts 348°
2026-04-29 23:22 -20.84846 -43.16404 29093 ft 433 kts 348°
2026-04-29 23:22 -20.79007 -43.17883 29088 ft 429 kts 335°
2026-04-29 23:23 -20.73601 -43.20475 29095 ft 428 kts 333°
2026-04-29 23:23 -20.68139 -43.23149 29098 ft 430 kts 333°
2026-04-29 23:24 -20.62718 -43.25764 29099 ft 430 kts 334°
2026-04-29 23:24 -20.57245 -43.28378 29105 ft 430 kts 334°
2026-04-29 23:25 -20.51769 -43.30988 29103 ft 430 kts 334°
2026-04-29 23:25 -20.46319 -43.33585 28837 ft 427 kts 334°
2026-04-29 23:26 -20.43627 -43.34866 28350 ft 421 kts 334°
2026-04-29 23:26 -20.40955 -43.36138 27796 ft 416 kts 334°
2026-04-29 23:26 -20.38326 -43.37390 27198 ft 412 kts 334°
2026-04-29 23:26 -20.35759 -43.38611 26631 ft 407 kts 334°
2026-04-29 23:27 -20.33179 -43.39839 26048 ft 404 kts 334°
2026-04-29 23:27 -20.30622 -43.41054 25460 ft 401 kts 334°
2026-04-29 23:27 -20.28084 -43.42260 24921 ft 397 kts 334°
2026-04-29 23:27 -20.25573 -43.43451 24438 ft 392 kts 334°
2026-04-29 23:28 -20.23097 -43.44625 23960 ft 387 kts 335°
2026-04-29 23:28 -20.20651 -43.45785 23454 ft 383 kts 335°
2026-04-29 23:28 -20.18228 -43.46934 22951 ft 380 kts 335°
2026-04-29 23:28 -20.15824 -43.48074 22484 ft 376 kts 335°
2026-04-29 23:29 -20.13440 -43.49203 22034 ft 374 kts 335°
2026-04-29 23:29 -20.11071 -43.50326 21568 ft 371 kts 335°
2026-04-29 23:29 -20.08742 -43.51429 21140 ft 369 kts 335°
2026-04-29 23:29 -20.06404 -43.52536 20693 ft 367 kts 335°
2026-04-29 23:30 -20.04069 -43.53642 20252 ft 366 kts 335°
2026-04-29 23:30 -20.01739 -43.54745 19811 ft 366 kts 335°
2026-04-29 23:30 -19.99411 -43.55846 19355 ft 365 kts 335°
2026-04-29 23:30 -19.97090 -43.56944 18907 ft 365 kts 336°
2026-04-29 23:31 -19.94802 -43.58027 18464 ft 364 kts 336°
2026-04-29 23:31 -19.92482 -43.59123 17977 ft 364 kts 336°
2026-04-29 23:31 -19.90176 -43.60212 17513 ft 362 kts 336°
2026-04-29 23:31 -19.87872 -43.61299 17072 ft 360 kts 336°
2026-04-29 23:32 -19.85616 -43.62448 16626 ft 359 kts 330°
2026-04-29 23:32 -19.83572 -43.63952 16204 ft 357 kts 320°
2026-04-29 23:32 -19.81704 -43.65680 15787 ft 355 kts 319°
2026-04-29 23:32 -19.79862 -43.67426 15362 ft 353 kts 319°
2026-04-29 23:33 -19.78045 -43.69146 15185 ft 345 kts 319°
2026-04-29 23:33 -19.76282 -43.70802 15130 ft 330 kts 319°
2026-04-29 23:33 -19.74591 -43.72380 14816 ft 322 kts 319°
2026-04-29 23:33 -19.72874 -43.73973 14166 ft 331 kts 320°
2026-04-29 23:34 -19.71124 -43.75594 13661 ft 337 kts 320°
2026-04-29 23:34 -19.69346 -43.77240 13247 ft 340 kts 320°
2026-04-29 23:34 -19.67563 -43.78891 12851 ft 341 kts 320°
2026-04-29 23:34 -19.65800 -43.80524 12446 ft 338 kts 320°
2026-04-29 23:35 -19.64043 -43.82152 12045 ft 333 kts 320°
2026-04-29 23:35 -19.62297 -43.83769 11660 ft 332 kts 320°
2026-04-29 23:35 -19.60552 -43.85384 11275 ft 333 kts 320°
2026-04-29 23:35 -19.58808 -43.86999 10778 ft 333 kts 320°
2026-04-29 23:36 -19.57074 -43.88603 10340 ft 328 kts 320°
2026-04-29 23:36 -19.55395 -43.90158 10070 ft 309 kts 320°
2026-04-29 23:36 -19.53839 -43.91598 9761 ft 292 kts 320°
2026-04-29 23:36 -19.52317 -43.93005 9317 ft 288 kts 320°
2026-04-29 23:37 -19.50807 -43.94400 8935 ft 287 kts 320°
2026-04-29 23:37 -19.49307 -43.95785 8585 ft 285 kts 320°
2026-04-29 23:37 -19.47818 -43.97159 8245 ft 282 kts 320°
2026-04-29 23:37 -19.46346 -43.98519 7910 ft 279 kts 319°
2026-04-29 23:38 -19.45177 -44.00147 7474 ft 282 kts 292°
2026-04-29 23:38 -19.44867 -44.02179 7115 ft 281 kts 265°
2026-04-29 23:38 -19.45432 -44.04133 6803 ft 278 kts 240°
2026-04-29 23:38 -19.46580 -44.05743 6471 ft 275 kts 229°
2026-04-29 23:39 -19.47866 -44.07274 6045 ft 272 kts 227°
2026-04-29 23:39 -19.49314 -44.08471 5689 ft 261 kts 198°
2026-04-29 23:39 -19.51016 -44.08546 5427 ft 242 kts 159°
2026-04-29 23:39 -19.52311 -44.07567 5192 ft 221 kts 130°
2026-04-29 23:40 -19.53345 -44.06421 4945 ft 209 kts 133°
2026-04-29 23:40 -19.54356 -44.05385 4762 ft 196 kts 134°
2026-04-29 23:40 -19.55300 -44.04415 4550 ft 183 kts 134°
2026-04-29 23:40 -19.56212 -44.03532 4311 ft 172 kts 136°
2026-04-29 23:41 -19.57075 -44.02727 4089 ft 158 kts 136°
2026-04-29 23:41 -19.57853 -44.02004 3894 ft 142 kts 136°
2026-04-29 23:41 -19.58583 -44.01325 3748 ft 141 kts 136°
2026-04-29 23:41 -19.59320 -44.00639 3579 ft 140 kts 136°
2026-04-29 23:42 -19.60051 -43.99959 3408 ft 139 kts 137°
2026-04-29 23:42 -19.60787 -43.99273 3228 ft 141 kts 137°
2026-04-29 23:42 -19.61523 -43.98589 3007 ft 143 kts 138°
2026-04-29 23:42 -19.62269 -43.97896 2869 ft 142 kts 138°
2026-04-29 23:43 -19.62989 -43.97232 2809 ft 126 kts 139°
2026-04-29 23:43 -19.63490 -43.96766 2801 ft 45 kts 138°
2026-04-29 23:43 -19.63581 -43.96615 2801 ft 22 kts 112°
2026-04-29 23:43 -19.63630 -43.96471 2802 ft 19 kts 110°
2026-04-29 23:44 -19.63637 -43.96384 2800 ft 9 kts 58°
2026-04-29 23:44 -19.63588 -43.96346 2800 ft 9 kts 27°
2026-04-29 23:44 -19.63544 -43.96322 2800 ft 6 kts 28°
2026-04-29 23:44 -19.63506 -43.96300 2802 ft 6 kts 28°
2026-04-29 23:45 -19.63467 -43.96305 2803 ft 6 kts 315°
2026-04-29 23:45 -19.63445 -43.96347 2802 ft 7 kts 295°
2026-04-29 23:45 -19.63418 -43.96402 2805 ft 10 kts 299°
2026-04-29 23:45 -19.63375 -43.96463 2802 ft 11 kts 315°
2026-04-29 23:46 -19.63355 -43.96504 2801 ft 5 kts 243°
2026-04-29 23:46 -19.63371 -43.96523 2801 ft 5 kts 228°
2026-04-29 23:46 -19.63382 -43.96536 2800 ft 0 kts 229°